This is the latest recevied weather packets stored in our database for station/object WL7CLI. If no packets are shown the sender has not sent any weather packets the latest 10 day(s).
| Time | Temp. | Humidity | Pressure | Rain* | Wind** | Luminosity | Snow |
|---|---|---|---|---|---|---|---|
| 1787952483 | 28.89° C | 52% | 1018.3 hPa | 0 mm | - | - | - |
| 1787951800 | 29.44° C | 51% | 1017.2 hPa | 0 mm | - | - | - |
| 1787951703 | 29.44° C | 50% | 1017.2 hPa | 0 mm | - | - | - |
| 1787950713 | 29.44° C | 53% | 1018.5 hPa | 0 mm | - | - | - |
| 1787950599 | 29.44° C | 52% | 1017.3 hPa | 0 mm | - | - | - |
| 1787950510 | 29.44° C | 52% | 1017.3 hPa | 0 mm | - | - | - |
| 1787949400 | 28.89° C | 53% | 1017.5 hPa | 0 mm | - | - | - |
| 1787949305 | 28.89° C | 54% | 1017.6 hPa | 0 mm | - | - | - |
| 1787948883 | 28.89° C | 53% | 1018.9 hPa | 0 mm | - | - | - |
| 1787948199 | 28.89° C | 53% | 1017.8 hPa | 0 mm | - | - | - |
| 1787948105 | 28.89° C | 53% | 1017.7 hPa | 0 mm | - | - | - |
| 1787947113 | 28.89° C | 55% | 1019.2 hPa | 0 mm | - | - | - |
| 1787947000 | 28.89° C | 53% | 1017.9 hPa | 0 mm | - | - | - |
| 1787946903 | 28.89° C | 53% | 1018 hPa | 0 mm | - | - | - |
| 1787945800 | 29.44° C | 53% | 1018.2 hPa | 0 mm | - | - | - |
| 1787945706 | 29.44° C | 53% | 1018.2 hPa | 0 mm | - | - | - |
| 1787945283 | 29.44° C | 54% | 1019.4 hPa | 0 mm | - | - | - |
| 1787944599 | 29.44° C | 50% | 1018.2 hPa | 0 mm | - | - | - |
| 1787944514 | 30° C | 50% | 1018.2 hPa | 0 mm | - | - | - |
| 1787943513 | 29.44° C | 51% | 1019.7 hPa | 0 mm | - | - | - |
| 1787943399 | 29.44° C | 50% | 1018.6 hPa | 0 mm | - | - | - |
| 1787943304 | 29.44° C | 49% | 1018.6 hPa | 0 mm | - | - | - |
| 1787942200 | 28.89° C | 51% | 1018.8 hPa | 0 mm | - | - | - |
| 1787942104 | 28.89° C | 52% | 1018.8 hPa | 0 mm | - | - | - |
| 1787941683 | 28.89° C | 51% | 1020 hPa | 0 mm | - | - | - |
* Rain latest hour (hover to see other rain measurements)
** Current wind speed in m/s (hover to see current wind gust speed)